, AZ

(GMT )
Fort Huachuca

Weather History for KALK - April, 2013

Change the Weather History Date:

Wednesday, April 24, 2013

  Actual Average Record
Temperature  
Mean Temperature 65 °F -  
Max Temperature 80 °F - - ()
Min Temperature 50 °F - - ()
Growing Degree Days 15 (Base 50)    
Moisture  
Dew Point 15 °F    
Average Humidity 15    
Maximum Humidity 31    
Minimum Humidity 7    
Precipitation  
Precipitation 0.00 in - - ()
Sea Level Pressure  
Sea Level Pressure 29.81 in    
Wind  
Wind Speed 10 mph (WSW)    
Max Wind Speed 17 mph    
Max Gust Speed 25 mph    
Visibility 10 miles    
Events      
Averages and records for this station are not official NWS values.
T = Trace of Precipitation, MM = Missing Value Source: NWS Daily Summary

Daily Weather History Graph

Daily Weather History Graph

Search for Another Location

Airport or City:

Astronomy

Apr. 24, 2013 Rise Set
Actual Time 5:43 AM MST 6:56 PM MST
Civil Twilight 5:17 AM MST 7:22 PM MST
Nautical Twilight 4:47 AM MST 7:52 PM MST
Astronomical Twilight 4:15 AM MST 8:24 PM MST
Moon 6:05 PM MST (4/24) 4:44 AM MST (4/24)
Length of Visible Light 14h 04m
Length of Day
13h 13m
Waxing Gibbous, 98% of the Moon is Illuminated
Apr 24
Waxing Gibbous
Apr 25
Full
May 2
Last Quarter
May 9
New
May 17
First Quarter

Hourly Weather History & Observations

Time (MST) Temp. Dew Point Humidity Pressure Visibility Wind Dir Wind Speed Gust Speed Precip Events Conditions
12:56 AM 55.0 °F 18.0 °F 23% 29.83 in 10.0 mi WNW 9.2 mph - N/A   Clear
1:56 AM 53.1 °F 19.0 °F 26% 29.83 in 10.0 mi WSW 11.5 mph - N/A   Clear
2:56 AM 55.0 °F 19.0 °F 24% 29.83 in 10.0 mi SW 9.2 mph - N/A   Clear
3:56 AM 52.0 °F 19.0 °F 27% 29.83 in 10.0 mi WSW 6.9 mph - N/A   Clear
4:56 AM 55.9 °F 19.0 °F 24% 29.83 in 10.0 mi SSE 3.5 mph - N/A   Clear
5:56 AM 50.0 °F 19.9 °F 31% 29.86 in 10.0 mi WSW 6.9 mph - N/A   Clear
6:56 AM 55.9 °F 21.0 °F 26% 29.87 in 10.0 mi West 6.9 mph - N/A   Clear
7:56 AM 68.0 °F 21.9 °F 17% 29.85 in 10.0 mi Calm Calm - N/A   Clear
8:56 AM - - N/A% - - North - - N/A   Unknown
9:56 AM 73.0 °F 19.9 °F 14% 29.84 in 10.0 mi SSW 17.3 mph 25.3 mph N/A   Clear
10:56 AM 75.9 °F 19.9 °F 12% 29.83 in 10.0 mi SSW 17.3 mph 24.2 mph N/A   Clear
11:56 AM 77.0 °F 19.0 °F 11% 29.80 in 10.0 mi WSW 17.3 mph 21.9 mph N/A   Clear
12:56 PM 79.0 °F 16.0 °F 9% 29.81 in 10.0 mi SW 16.1 mph 20.7 mph N/A   Clear
1:56 PM 79.0 °F 16.0 °F 9% 29.80 in 10.0 mi SW 13.8 mph 23.0 mph N/A   Clear
2:56 PM 80.1 °F 12.9 °F 8% 29.77 in 10.0 mi WSW 13.8 mph 23.0 mph N/A   Clear
3:56 PM 79.0 °F 10.9 °F 8% 29.77 in 10.0 mi West 9.2 mph - N/A   Clear
4:56 PM 78.1 °F 9.0 °F 7% 29.76 in 10.0 mi SSW 17.3 mph - N/A   Clear
5:56 PM 75.0 °F 6.1 °F 7% 29.80 in 10.0 mi SW 11.5 mph - N/A   Clear
6:56 PM 73.0 °F 9.0 °F 8% 29.80 in 10.0 mi WSW 16.1 mph - N/A   Clear
7:56 PM 70.0 °F 10.0 °F 10% 29.80 in 10.0 mi SW 11.5 mph - N/A   Clear
8:56 PM 70.0 °F 10.0 °F 10% 29.78 in 10.0 mi SSW 15.0 mph 20.7 mph N/A   Clear
9:56 PM 69.1 °F 10.9 °F 11% 29.79 in 10.0 mi North - - N/A   Clear
10:56 PM 66.0 °F 12.9 °F 13% 29.81 in 10.0 mi NNW 4.6 mph - N/A   Clear
11:56 PM 62.1 °F 14.0 °F 15% 29.81 in 10.0 mi West 4.6 mph - N/A   Clear